Regional Weather Roundup
Issued by NWS

Home | Current Version | Previous Version | Graphics & Text | Print | Product List | Glossary On
Versions: 1 2 3 4 5 6 7 8 9 10 11 12 13 14 15 16 17 18 19 20 21 22 23 24 25 26 27 28 29 30 31 32 33 34 35 36 37 38 39 40 41 42 43 44 45 46 47 48 49 50
000
ASUS45 KTFX 292204
RWRMT
MONTANA REGIONAL WEATHER ROUNDUP
NATIONAL WEATHER SERVICE GREAT FALLS MT
400 PM MDT SAT AUG 29 2015

NOTE: "FAIR" INDICATES FEW OR NO CLOUDS BELOW 12000 FEET WITH NO
SIGNIFICANT WEATHER AND/OR OBSTRUCTIONS TO VISIBILITY.

MTZ001>007-043-292300-
WEST OF THE DIVIDE

CITY           SKY/WX    TMP DP  RH WIND       PRES   REMARKS
KALISPELL      CLOUDY    76  47  35 N7        29.72S SMOKE
MISSOULA       CLOUDY    80  46  30 NW6       29.76F HAZE
BUTTE          LGT RAIN  73  49  42 SW16G32   29.95R
MULLAN PASS    CLOUDY    57  44  62 VRB6      29.98S
DEER LODGE       N/A     86  43  22 W9        29.84F
EUREKA           N/A     84  41  21 S21G38    29.72S
HAMILTON         N/A     79  46  31 E1        29.77F
LIBBY            N/A     82  43  24 S9G20     29.76S
$$

MTZ008-052>055-292300-
SOUTHWEST MONTANA

CITY           SKY/WX    TMP DP  RH WIND       PRES   REMARKS
BOZEMAN        CLOUDY    88  42  20 S21       29.87F
DILLON         PTSUNNY   89  38  16 S29G40    29.86F
W YELLOWSTONE  CLOUDY    75  39  27 S12       30.13F
$$

MTZ009-010-012-014-046-048-049-054-292300-
EAST SLOPES AND CENTRAL MONTANA

CITY           SKY/WX    TMP DP  RH WIND       PRES   REMARKS
CUT BANK       PTSUNNY   85  43  22 S20       29.76F
GREAT FALLS    CLOUDY    91  40  16 VRB3      29.75F HAZE
HELENA         CLOUDY    91  41  17 S18G26    29.74F
$$

MTZ011-013-016-021-045-047-050-051-292300-
NORTH CENTRAL MONTANA

CITY           SKY/WX    TMP DP  RH WIND       PRES   REMARKS
HAVRE          CLOUDY    92  47  21 S9        29.74R HAZE
LEWISTOWN      CLOUDY    87  43  21 SE7       29.87F
N BAR RANCH      N/A     84  39  20 S9        29.94F
CHINOOK          N/A     93  45  18 SE12G18   29.73S
FORT BENTON      N/A     90  43  19 N6        29.73F
$$

MTZ017>020-022>027-061-062-292300-
NORTHEAST MONTANA

CITY           SKY/WX    TMP DP  RH WIND       PRES   REMARKS
GLASGOW        HAZE      91  41  17 E13       29.78F VSB 1/2
JORDAN           N/A     96  38  13 S14G21    29.80F HX  91
SIDNEY         PTSUNNY   97  48  19 S6        29.80F HX  93
WOLF POINT     HAZE      91  45  20 E8        29.79F VSB 1/2
PLENTYWOOD       N/A     90  46  22 SE8       29.82F
POPLAR           N/A     90  43  19 E5        29.81F VSB 1/2
$$

MTZ028>42-056>058-292300-
SOUTHCENTRAL AND SOUTHEAST MONTANA

CITY           SKY/WX    TMP DP  RH WIND       PRES   REMARKS
BAKER          SUNNY     98  43  15 S12       29.89F HX  94
BILLINGS       CLOUDY    89  48  24 SW5       29.88F
LIVINGSTON     PTSUNNY   87  39  18 S13G21    29.92F
MILES CITY     PTSUNNY   98  40  13 S7        29.81F HX  93
FORSYTH          N/A     99  41  13 N5        29.82F HX  94
$$

REGIONAL REPORTS...DAKOTAS

CITY           SKY/WX    TMP DP  RH WIND       PRES   REMARKS
WILLISTON      PTSUNNY   92  47  21 CALM      29.81F HAZE
MINOT          PTSUNNY   94  48  20 S13       29.81F HAZE    HX  90
DICKINSON      MOSUNNY   98  41  14 SW10      29.85F HX  93
BISMARCK       PTSUNNY   92  56  29 SE14      29.86F HAZE    HX  90
GRAND FORKS    PTSUNNY   80  69  69 S13       29.84F
FARGO          SUNNY     83  68  60 S14       29.88F
BUFFALO SD       N/A     95  51  22 SE13      29.85F HX  92
RAPID CITY     SUNNY     93  51  23 S12       29.96F HX  90
$$

REGIONAL REPORTS...WYOMING/IDAHO/WASHINGTON

CITY           SKY/WX    TMP DP  RH WIND       PRES   REMARKS
GILLETTE       SUNNY     96  36  12 S16G40    29.96F HX  91
SHERIDAN       MOSUNNY   98  34  10 NE9       29.90F HX  92
BUFFALO WY     MOSUNNY   96  27   8 S9        29.99F HX  90
CODY           CLOUDY    90  37  15 W10       30.01F
YELLOWSTONE LA   N/A     63  47  55 VRB6      30.29F
IDAHO FALLS    PTSUNNY   93  41  16 SW25G32   29.96F
SALMON         CLOUDY    90  45  20 SW22G29   29.75S
BOISE          CLOUDY    93  39  15 SW12      29.81F
SPOKANE        CLOUDY    64  54  69 SW10      29.84S
$$

REGIONAL REPORTS...ALBERTA

CITY           SKY/WX    TMP DP  RH WIND       PRES   REMARKS
CALGARY        CLOUDY    77  46  33 S26G33    29.60F SMOKE
$$

REGIONAL REPORTS...SASKATCHEWAN

CITY           SKY/WX    TMP DP  RH WIND       PRES   REMARKS
$$


USA.gov is the U.S. government's official web portal to all federal, state and local government web resources and services.